COSMOS 2596 (708K)

Last updated on Fri Jun 19 2026 17:09:57 GMT+0000 (Coordinated Universal Time)

1 65590U 25206B 26169.43366895 -.00000057 00000+0 00000+0 0 9999 2 65590 64.6338 314.9413 0010998 311.7055 76.8578 2.13100598 5949
UTC large
Height (km)
Speed (km/s)
/
Latitude / Longitude
Inclination (degrees)
Orbital Period (minutes)
Azimuth
Elevation
Range (km)
Doppler Factor

Next 0 passes for location: London (51.5072 / 0.1276)

No passes found over London.
COSMOS 2596 (708K)